RADUGA 6 [-]

Last updated on July 6, 2021, 3:35 p.m. UTC

1 11708U 80016A   21186.89281132 -.00000188  00000-0  00000-0 0  9992
2 11708  10.0407 306.3476 0002565 162.1238 225.5368  1.00206766104049
UTC
Height (km)
Latitude
Longitude
Inclination
Orbital Period
UTC large
Height (km)
Speed (km/s)
/
Latitude / Longitude
Inclination (degrees)
Orbital Period (minutes)
Azimuth
Elevation
Range (km)
Doppler Factor
iOS Compass Heading
iOS Angle